Location: Mequon Rotary Park
(43.2522°N, 87.9594°W)
Time: 13:44:00
(UTC-06:00)

Daily predictions for brighter satellites

Satellite Brightness Start Highest point End
(mag) Time Altitude Azimuth Time Altitude Azimuth Time Altitude Azimuth
USA 215 3.3 16:43:21 10° ESE 16:49:50 69° NE 16:56:19 10° NW
Abrixas rocket 3.1 16:48:01 10° W 16:51:04 37° N 16:54:08 10° ENE
YAOGAN 1 3.7 16:48:02 10° ESE 16:51:26 23° ENE 16:54:52 10° NNE
BREEZE-M DEB (TANK) 3.7 16:50:19 10° NW 16:52:39 34° NNE 16:56:58 10° E
CSL-04 Debris 4.3 16:49:09 10° SSE 16:54:23 55° ENE 16:59:39 10° N
Meteor 2-4 Rocket 4.1 16:51:53 10° SSE 16:56:54 39° E 17:01:51 10° NNE
Cosmos 1975 3.3 16:54:39 10° NNW 16:58:41 66° W 17:02:42 10° S
ISS -2.3 16:58:09 10° WNW 17:01:16 39° SW 17:04:21 10° SSE
Cosmos 724 4.3 16:56:04 10° NNW 17:01:48 59° NE 17:07:32 10° SE
Cosmos 2369 4.0 17:00:04 10° S 17:05:32 52° ESE 17:11:04 10° NE
Cosmos 2278 4.0 17:00:17 10° S 17:05:43 49° ESE 17:11:13 10° NE
AQUARIUS 4.2 17:01:44 10° SSE 17:06:09 61° ENE 17:10:35 10° N
COSMO-SKYMED 1 3.9 17:03:32 10° NE 17:06:50 21° E 17:10:07 10° SE
SJ 16-02 1.7 17:04:26 10° S 17:08:37 45° ESE 17:12:50 10° NNE
CSL-04 Rocket 3.7 17:04:15 10° SSE 17:09:40 83° ENE 17:15:13 10° NNW
Meteor 1-28 Rocket 3.5 17:06:12 10° NNE 17:09:50 46° E 17:13:29 10° S
CZ-2C R/B 3.8 17:05:15 10° S 17:10:12 45° W 17:15:08 10° NNW
CENTAUR R/B 3.8 17:04:40 10° NNW 17:11:21 31° NE 17:18:31 10° E
Meteor 1-13 Rocket 4.2 17:06:37 10° S 17:12:11 72° E 17:17:54 10° NNE
Cosmos 1975 Rocket 4.2 17:09:09 10° SSW 17:13:27 46° WNW 17:17:47 10° N
IRAS Rocket 4.3 17:10:01 10° SSE 17:15:31 89° WSW 17:21:02 10° NNW
Cosmos 2279 Rocket 4.4 17:13:01 10° SSW 17:19:15 68° W 17:25:30 10° N
Cosmos 1697 Rocket 3.2 17:15:50 10° S 17:21:03 40° ESE 17:25:53 12° NE
Cosmos 1743 3.6 17:17:51 10° NNW 17:21:40 54° W 17:25:27 10° S
CZ-2C R/B 3.9 17:19:16 10° NNE 17:23:53 53° E 17:28:31 10° S
EO 1 Del DPAF 4.5 17:22:11 16° ENE 17:23:56 22° E 17:26:56 10° SSE
CZ-4 R/B 1.2 17:23:14 10° SSE 17:27:06 75° ENE 17:31:05 10° N
SPOT 3 Rocket 4.1 17:25:28 10° SE 17:30:07 35° ENE 17:34:46 10° N
Cosmos 1025 Rocket 3.8 17:27:43 10° SSE 17:31:29 30° E 17:34:10 16° NE
Ariane Rocket 3.3 17:27:17 10° S 17:32:19 72° WSW 17:37:24 10° NNW
Cosmos 2082 3.8 17:28:36 10° NNW 17:34:15 83° WSW 17:39:52 10° SSE
Okean 1-7 Rocket 4.5 17:34:02 10° SSE 17:37:45 28° E 17:39:24 22° NE
ERS-2 2.6 17:34:39 10° SE 17:38:01 36° ENE 17:41:25 10° N
Landsat 4 3.9 17:35:27 14° NNE 17:38:35 49° E 17:42:17 10° S
Gblst 52 Del rocket 4.2 17:33:22 10° NW 17:38:56 66° NNE 17:44:12 14° ESE
Cosmos 2251 Rocket 4.4 17:35:18 10° N 17:39:45 27° ENE 17:42:22 18° E
SMAP 3.7 17:35:31 10° S 17:40:06 59° W 17:44:43 10° NNW
Cosmos 2084 4.0 17:36:17 10° S 17:40:09 37° ESE 17:41:44 26° ENE
Cosmos 1536 Rocket 3.7 17:37:17 10° SSW 17:41:37 74° W 17:45:59 10° N
USA 238 4.5 17:36:13 10° NW 17:43:10 58° WSW 17:50:10 10° SSE
Cosmos 2227 Rocket 3.0 17:39:37 10° NNW 17:45:08 54° WSW 17:50:36 10° S
Cosmos 1269 Rocket 4.0 17:40:07 10° NNW 17:45:28 90° WSW 17:50:46 10° SSE
Cosmos 1125 Rocket 3.7 17:40:52 10° SSW 17:46:10 76° WNW 17:51:29 10° NNE
Okean 2 3.6 17:44:40 10° SSE 17:48:35 46° E 17:50:50 23° NNE
Gbstr 26 Del rocket 4.4 17:41:41 10° SW 17:49:48 83° SE 17:54:39 24° ENE
Cosmos 1241 Rocket 4.4 17:44:49 10° SSW 17:51:09 70° ESE 17:55:41 20° NE
DNEPR-1 R/B 4.3 17:49:02 10° NNW 17:53:58 50° NE 17:59:46 11° SE
SKYMED 2 3.5 17:51:25 14° NNE 17:55:08 68° ESE 17:59:27 10° S
ALOS 2.3 17:50:37 10° SSE 17:55:10 57° ENE 17:59:46 10° N
MTI 3.6 17:56:21 31° NNE 17:57:47 81° ESE 18:01:02 10° S
Cosmos 372 Rocket 4.4 17:52:39 10° SSW 17:57:48 62° WNW 18:02:57 10° NNE
Nadezhda 2 Rocket 4.4 17:55:23 10° N 18:01:44 74° E 18:08:07 10° SSE
Cosmos 1980 Rocket 2.4 17:56:59 10° S 18:02:27 51° ESE 18:05:03 29° NE
Meteor 1-23 Rocket 4.5 18:05:17 10° SSW 18:11:00 71° W 18:16:42 10° N
NOSS 3-2 (A) 4.4 18:03:46 10° NW 18:11:17 67° WSW 18:19:24 10° SSE
Cosmos 2297 Rocket 3.7 18:06:13 10° NW 18:11:26 38° WSW 18:16:36 10° S
MOS 1 4.3 18:06:07 10° SSE 18:11:49 83° WSW 18:17:32 10° NNW
Cosmos 1656 4.3 18:06:59 10° SW 18:12:26 54° WNW 18:17:01 14° NNE
NOSS 3-2 (C) 4.2 18:12:07 10° NW 18:19:41 76° WSW 18:27:54 10° SSE
ATLAS 3B R/B 4.5 18:17:20 10° NW 18:22:56 30° WSW 18:28:27 10° S
PSLV R/B 4.2 18:22:33 10° W 18:25:00 43° SW 18:25:00 43° SW
SL-24 R/B - RUBIN 2 4.2 18:20:16 10° SSW 18:26:30 87° ESE 18:28:35 42° NE
YAOGAN 1 4.3 18:23:26 10° SSW 18:27:21 34° W 18:31:20 10° NNW
ATLAS 2AS CENTAUR R/B 4.3 18:20:18 10° W 18:27:24 34° NW 18:33:19 15° NNE
Abrixas rocket 4.0 18:25:06 10° WNW 18:26:51 24° NW 18:26:51 24° NW
NOAA 12 4.2 18:24:08 10° S 18:29:24 74° WSW 18:34:40 10° NNW
DELTA 2 R/B (1) 4.2 18:24:22 10° W 18:29:43 48° SSW 18:31:48 33° SE
Cosmos 2344 4.3 18:25:16 10° S 18:31:20 31° ESE 18:31:20 31° ESE
Lacrosse 5 rocket 3.8 18:28:59 10° S 18:29:24 12° SSE 18:29:24 12° SSE
Cosmos 2227 4.1 18:26:32 10° NNW 18:32:18 68° ENE 18:34:03 44° SE
S3M 3.8 18:36:50 10° S 18:42:53 68° E 18:44:08 54° NE
COSMO-SKYMED 1 4.0 18:40:01 15° N 18:43:06 37° WNW 18:47:05 10° SW
RESURS DK-1 3.2 18:40:52 10° SSW 18:43:45 45° SSW 18:43:45 45° SSW
FENGYUN 3A 4.4 18:39:52 10° S 18:45:06 53° W 18:50:21 10° NNW
SL-16 R/B 3.6 18:40:01 10° S 18:42:32 24° SSE 18:42:32 24° SSE
Cosmos 2263 Rocket 3.7 18:41:26 10° N 18:43:35 22° N 18:43:35 22° N
SJ 16-02 3.8 18:44:21 10° WSW 18:47:27 19° WNW 18:50:32 10° NNW
NOSS 3-4 (A) 3.9 18:41:47 10° SW 18:47:54 59° NW 18:50:25 36° NNE
NOSS 3-4 (C) 3.9 18:41:52 10° SW 18:48:00 59° NW 18:50:29 37° NNE
Cosmos 2322 Rocket 3.6 18:44:20 10° S 18:46:37 23° SSE 18:46:37 23° SSE
Cosmos 2360 4.4 18:48:56 10° SSW 18:54:37 70° WNW 18:55:56 52° N
BREEZE-M DEB (TANK) 4.2 18:57:31 10° WNW 18:59:42 42° NNW 18:59:42 42° NNW
CENTAUR R/B 3.0 18:55:05 10° NW 19:03:02 88° SW 19:06:43 39° SSE
Cosmos 1697 Rocket 4.2 19:00:01 10° WSW 19:05:04 33° NW 19:07:40 22° N
Cosmos 1553 Rocket 4.4 19:09:33 10° SSW 19:15:54 62° W 19:19:13 29° N
Cosmos 1745 Rocket 4.4 19:22:09 10° NNW 19:28:14 58° W 19:34:21 10° S
Cosmos 1980 Rocket 3.9 19:41:58 10° WSW 19:46:44 27° NW 19:46:52 27° NW
